sat.trackr.live / text

‹ back to catalog

PRAETORIAN SDA_604

NORAD 65567 · 2025-203C

PAYLOAD ACTIVE UNKNOWN

§ Identity

Operator
Country
US
Launch date
2025-09-10
Launch site
AFWTR
Launch vehicle
Mass (kg)
RCS (m²)

Purposes: military

External: N2YO · Heavens-Above · Gunter

§ Orbital elements

Epoch: 2026-05-25T03:17:50.186688Z

Period
104.12 min
Inclination
81.3070°
Eccentricity
0.0004560
Mean motion
13.83043508 rev/d
Perigee alt
949.8 km
Apogee alt
956.5 km
Semi-major
7,331.2 km
B*
9.3669e-5
RAAN
32.3973°
Arg perigee
265.1865°
Mean anomaly
94.8771°
Rev number
3,549

§ Raw data

PRAETORIAN SDA_6041 65567U 25203C   26145.13738642  .00000114  00000+0  93669-4 0  99952 65567  81.3070  32.3973 0004560 265.1865  94.8771 13.83043508 35497

JSON: /api/v1/satellites/65567 · /tle

For live sub-satellite position, see the globe view (requires WebGL).

§ Visibility from observer

Set your observer location to see the next 7 days of passes ≥ 10°. The values pass through the URL so the page stays shareable.

No JS? Fill the form by hand. The geolocation button needs JavaScript.